User: anonymous   Login
Location: Ballingbuur
(53.0000°N, 5.7667°E)
Time: 16:00:22
(UTC+00:00)
Language:

Cosmos 2366 rocket - Orbit

View from above orbital plane
View from above orbital plane
View from above satellite
View from above satellite

Ground track
Ground track

The orbit data is extracted from the following two-line orbital elements,

1 25893U 99045B   21062.86869297  .00000125  00000-0  11267-3 0  9998
2 25893  82.9230  95.3609 0027158 263.4728 269.8133 13.76538569 81161
Epoch (UTC): 03 March 2021 20:50:55
Eccentricity: 0.0027158
inclination: 82.9230°
perigee height: 956 km
apogee height: 996 km
right ascension of ascending node: 95.3609°
argument of perigee: 263.4728°
revolutions per day: 13.76538569
mean anomaly at epoch: 269.8133°
orbit number at epoch: 8116

The dashed part of the orbit path shows where the satellite is in the earth's shadow,  

DLR